User: anonymous
Location: Shell Point
(30.0571°N, 84.2896°W)
Time: 09:57:06
(UTC-04:00)
Language:

Meteor 2-19 Rocket - Orbit

View from above orbital plane
View from above orbital plane
View from above satellite
View from above satellite

Ground track
Ground track

The orbit data is extracted from the following two-line orbital elements,

1 20671U 90057B   14112.86433458  .00000034  00000-0  16901-4 0  9490
2 20671 082.5496 207.2484 0013984 313.4533 185.8764 13.84570949203741
Epoch (UTC): 22 April 2014 20:44:38
Eccentricity: 0.0013984
inclination: 82.5496°
perigee height: 937 km
apogee height: 958 km
right ascension of ascending node: 207.2484°
argument of perigee: 313.4533°
revolutions per day: 13.84570949
mean anomaly at epoch: 185.8764°
orbit number at epoch: 20374

The dashed part of the orbit path shows where the satellite is in the earth's shadow,  

DLR